| time (UTC) | temp F | wind direction | speed knots | gust knots | rain 1hr in | rain 24hr in | rain mn in | humidity % | barometer mb |
| 20260905120605 | 64 | 273 | 1.7 | 5.2 | 0.00 | 0.00 | 0.00 | 93 | 1012.8 |
| 20260905120105 | 64 | 307 | 0.9 | 6.1 | 0.00 | 0.00 | 0.00 | 94 | 1012.7 |
| 20260905115605 | 64 | 276 | 0.9 | 5.2 | 0.00 | 0.00 | 0.00 | 95 | 1012.6 |
| 20260905115105 | 63 | 264 | 1.7 | 6.1 | 0.00 | 0.00 | 0.00 | 95 | 1012.6 |
| 20260905114605 | 63 | 286 | 2.6 | 6.1 | 0.00 | 0.00 | 0.00 | 95 | 1012.6 |
| 20260905114105 | 62 | 286 | 1.7 | 2.6 | 0.00 | 0.00 | 0.00 | 95 | 1012.5 |
| 20260905113605 | 62 | 280 | 1.7 | 4.3 | 0.00 | 0.00 | 0.00 | 95 | 1012.4 |
| 20260905112606 | 61 | 336 | 0.0 | 0.0 | 0.00 | 0.00 | 0.00 | 96 | 1012.4 |
| 20260905112104 | 61 | 336 | 0.0 | 0.0 | 0.00 | 0.00 | 0.00 | 95 | 1012.4 |
| 20260905111605 | 60 | 336 | 0.0 | 0.0 | 0.00 | 0.00 | 0.00 | 95 | 1012.2 |
| 20260905111106 | 60 | 336 | 0.0 | 0.0 | 0.00 | 0.00 | 0.00 | 95 | 1012.2 |
| 20260905110605 | 60 | 336 | 0.0 | 0.0 | 0.00 | 0.00 | 0.00 | 95 | 1012.2 |
| 20260905110105 | 60 | 336 | 0.0 | 0.0 | 0.00 | 0.00 | 0.00 | 95 | 1012.1 |
| 20260905105105 | 60 | 336 | 0.0 | 0.0 | 0.00 | 0.01 | 0.00 | 95 | 1011.9 |
| 20260905104604 | 60 | 336 | 0.0 | 0.0 | 0.00 | 0.01 | 0.00 | 95 | 1011.9 |
| 20260905104105 | 60 | 336 | 0.0 | 0.0 | 0.00 | 0.01 | 0.00 | 95 | 1011.8 |
| 20260905103605 | 60 | 336 | 0.0 | 0.0 | 0.00 | 0.01 | 0.00 | 95 | 1011.7 |
| 20260905103105 | 60 | 336 | 0.0 | 0.0 | 0.00 | 0.01 | 0.00 | 95 | 1011.7 |
| 20260905102606 | 60 | 336 | 0.0 | 0.0 | 0.00 | 0.01 | 0.00 | 95 | 1011.5 |
| 20260905102105 | 60 | 336 | 0.0 | 0.0 | 0.00 | 0.01 | 0.00 | 95 | 1011.5 |
| 20260905101606 | 60 | 336 | 0.0 | 0.0 | 0.00 | 0.01 | 0.00 | 95 | 1011.5 |
| 20260905101104 | 60 | 336 | 0.0 | 0.0 | 0.00 | 0.01 | 0.00 | 94 | 1011.4 |
| 20260905100605 | 60 | 336 | 0.0 | 0.0 | 0.00 | 0.01 | 0.00 | 94 | 1011.4 |
| 20260905100105 | 60 | 336 | 0.0 | 0.0 | 0.00 | 0.01 | 0.00 | 94 | 1011.5 |
| 20260905095106 | 60 | 336 | 0.0 | 0.0 | 0.00 | 0.01 | 0.00 | 94 | 1011.4 |
| 20260905094604 | 60 | 336 | 0.0 | 0.0 | 0.00 | 0.01 | 0.00 | 94 | 1011.5 |
| 20260905094104 | 60 | 336 | 0.0 | 0.0 | 0.00 | 0.01 | 0.00 | 94 | 1011.4 |
| 20260905093605 | 60 | 336 | 0.0 | 0.0 | 0.00 | 0.01 | 0.00 | 94 | 1011.5 |
| 20260905093104 | 60 | 336 | 0.0 | 0.0 | 0.00 | 0.01 | 0.00 | 94 | 1011.4 |
| 20260905092604 | 60 | 336 | 0.0 | 0.0 | 0.00 | 0.01 | 0.00 | 94 | 1011.4 |
| 20260905092104 | 61 | 336 | 0.0 | 0.0 | 0.00 | 0.01 | 0.00 | 94 | 1011.4 |
| 20260905091106 | 61 | 336 | 0.0 | 0.0 | 0.00 | 0.01 | 0.00 | 94 | 1011.4 |
| 20260905090605 | 61 | 336 | 0.0 | 0.0 | 0.00 | 0.01 | 0.00 | 94 | 1011.3 |
| 20260905085605 | 61 | 336 | 0.0 | 0.0 | 0.00 | 0.01 | 0.00 | 94 | 1011.3 |
| 20260905085105 | 61 | 336 | 0.0 | 0.0 | 0.00 | 0.01 | 0.00 | 94 | 1011.3 |
| 20260905084605 | 61 | 336 | 0.0 | 0.0 | 0.00 | 0.01 | 0.00 | 94 | 1011.3 |
| 20260905084105 | 61 | 336 | 0.0 | 0.0 | 0.00 | 0.01 | 0.00 | 94 | 1011.2 |
| 20260905083605 | 61 | 336 | 0.0 | 0.0 | 0.00 | 0.01 | 0.00 | 94 | 1011.2 |
| 20260905083105 | 61 | 336 | 0.0 | 0.0 | 0.00 | 0.01 | 0.00 | 94 | 1011.3 |
| 20260905082606 | 61 | 336 | 0.0 | 0.0 | 0.00 | 0.01 | 0.00 | 94 | 1011.2 |
| 20260905082106 | 62 | 336 | 0.0 | 0.0 | 0.00 | 0.01 | 0.00 | 93 | 1011.2 |
| 20260905081104 | 62 | 336 | 0.0 | 0.0 | 0.00 | 0.01 | 0.00 | 93 | 1011.2 |
| 20260905080605 | 62 | 336 | 0.0 | 0.0 | 0.00 | 0.01 | 0.00 | 94 | 1011.3 |
| 20260905080105 | 62 | 336 | 0.0 | 0.0 | 0.00 | 0.01 | 0.00 | 93 | 1011.3 |
| 20260905075604 | 62 | 336 | 0.0 | 0.0 | 0.00 | 0.01 | 0.00 | 93 | 1011.3 |
| 20260905074605 | 62 | 336 | 0.0 | 0.0 | 0.00 | 0.01 | 0.00 | 93 | 1011.3 |
| 20260905074106 | 62 | 336 | 0.0 | 0.0 | 0.00 | 0.01 | 0.00 | 93 | 1011.3 |
| 20260905073605 | 62 | 336 | 0.0 | 0.0 | 0.00 | 0.01 | 0.00 | 93 | 1011.4 |
| 20260905072605 | 62 | 336 | 0.0 | 0.0 | 0.00 | 0.01 | 0.00 | 93 | 1011.4 |
| 20260905072105 | 62 | 335 | 0.0 | 0.0 | 0.00 | 0.02 | 0.00 | 93 | 1011.4 |
| 20260905071606 | 63 | 335 | 0.0 | 0.0 | 0.00 | 0.03 | 0.00 | 93 | 1011.4 |
| 20260905071105 | 63 | 335 | 0.0 | 0.0 | 0.00 | 0.05 | 0.00 | 92 | 1011.4 |
| 20260905070604 | 63 | 335 | 0.0 | 0.0 | 0.00 | 0.06 | 0.00 | 92 | 1011.3 |
| 20260905065605 | 63 | 334 | 0.0 | 0.0 | 0.00 | 0.07 | 0.00 | 92 | 1011.5 |
| 20260905065105 | 63 | 334 | 0.0 | 0.0 | 0.00 | 0.08 | 0.00 | 92 | 1011.5 |
| 20260905064605 | 63 | 332 | 0.0 | 0.0 | 0.00 | 0.12 | 0.00 | 92 | 1011.4 |
| 20260905064105 | 64 | 332 | 0.0 | 0.0 | 0.00 | 0.19 | 0.00 | 92 | 1011.5 |
| 20260905063605 | 64 | 333 | 0.0 | 0.0 | 0.00 | 0.21 | 0.00 | 92 | 1011.6 |
| 20260905063104 | 64 | 333 | 0.0 | 1.7 | 0.00 | 0.21 | 0.00 | 92 | 1011.6 |
| 20260905062605 | 64 | 334 | 0.0 | 0.0 | 0.00 | 0.21 | 0.00 | 92 | 1011.6 |
| 20260905062105 | 64 | 334 | 0.0 | 0.0 | 0.00 | 0.22 | 0.00 | 91 | 1011.6 |
| 20260905060604 | 65 | 334 | 0.0 | 0.0 | 0.00 | 0.25 | 0.00 | 91 | 1011.7 |
| 20260905060104 | 65 | 334 | 0.0 | 0.0 | 0.00 | 0.25 | 0.00 | 91 | 1011.7 |
| 20260905055105 | 65 | 335 | 0.0 | 0.0 | 0.00 | 0.25 | 0.00 | 91 | 1011.7 |
| 20260905054605 | 65 | 335 | 0.0 | 0.0 | 0.00 | 0.25 | 0.00 | 91 | 1011.9 |
| 20260905053605 | 66 | 335 | 0.0 | 0.0 | 0.00 | 0.25 | 0.00 | 91 | 1012.0 |
| 20260905053105 | 66 | 335 | 0.0 | 0.0 | 0.00 | 0.25 | 0.00 | 91 | 1012.1 |
| 20260905052604 | 66 | 335 | 0.0 | 0.0 | 0.00 | 0.25 | 0.00 | 91 | 1012.1 |
| 20260905052105 | 66 | 335 | 0.0 | 0.0 | 0.00 | 0.25 | 0.00 | 91 | 1012.2 |
| 20260905051105 | 66 | 334 | 0.0 | 0.0 | 0.00 | 0.25 | 0.00 | 90 | 1012.3 |
| 20260905050604 | 66 | 334 | 0.0 | 0.0 | 0.00 | 0.25 | 0.00 | 90 | 1012.3 |
| 20260905050104 | 66 | 334 | 0.0 | 0.0 | 0.00 | 0.25 | 0.00 | 90 | 1012.3 |
| 20260905045606 | 66 | 334 | 0.0 | 0.0 | 0.00 | 0.25 | 0.00 | 90 | 1012.3 |
| 20260905045105 | 66 | 334 | 0.0 | 0.0 | 0.00 | 0.25 | 0.00 | 90 | 1012.3 |
| 20260905044605 | 66 | 334 | 0.0 | 0.0 | 0.00 | 0.25 | 0.00 | 90 | 1012.2 |
| 20260905043104 | 66 | 334 | 0.0 | 0.0 | 0.00 | 0.25 | 0.00 | 89 | 1012.1 |
| 20260905042605 | 67 | 333 | 0.0 | 0.0 | 0.00 | 0.25 | 0.00 | 89 | 1012.3 |
| 20260905042104 | 67 | 334 | 0.0 | 0.0 | 0.00 | 0.25 | 0.00 | 89 | 1012.2 |
| 20260905041104 | 67 | 334 | 0.0 | 0.0 | 0.00 | 0.25 | 0.00 | 89 | 1012.2 |
| 20260905040605 | 67 | 334 | 0.0 | 0.0 | 0.00 | 0.25 | 0.00 | 89 | 1012.3 |
| 20260905035605 | 67 | 334 | 0.0 | 0.0 | 0.00 | 0.25 | 0.25 | 89 | 1012.3 |
| 20260905035104 | 67 | 334 | 0.0 | 0.0 | 0.00 | 0.25 | 0.25 | 89 | 1012.3 |
| 20260905034605 | 67 | 334 | 0.0 | 0.0 | 0.00 | 0.25 | 0.25 | 88 | 1012.4 |
| 20260905033105 | 68 | 334 | 0.0 | 0.0 | 0.00 | 0.25 | 0.25 | 89 | 1012.3 |
| 20260905032606 | 68 | 334 | 0.0 | 0.0 | 0.00 | 0.25 | 0.25 | 89 | 1012.2 |
| 20260905032105 | 68 | 334 | 0.0 | 0.0 | 0.00 | 0.25 | 0.25 | 88 | 1012.2 |
| 20260905031105 | 68 | 334 | 0.0 | 0.0 | 0.00 | 0.25 | 0.25 | 88 | 1012.2 |
| 20260905030605 | 68 | 334 | 0.0 | 0.0 | 0.00 | 0.25 | 0.25 | 88 | 1012.2 |
| 20260905030104 | 68 | 334 | 0.0 | 0.0 | 0.00 | 0.25 | 0.25 | 88 | 1012.1 |
| 20260905025605 | 68 | 334 | 0.0 | 0.0 | 0.00 | 0.25 | 0.25 | 87 | 1012.1 |
| 20260905025104 | 68 | 334 | 0.0 | 0.0 | 0.00 | 0.25 | 0.25 | 87 | 1012.1 |
| 20260905024605 | 69 | 334 | 0.0 | 0.0 | 0.00 | 0.25 | 0.25 | 86 | 1012.1 |
| 20260905024105 | 69 | 334 | 0.0 | 0.0 | 0.00 | 0.25 | 0.25 | 86 | 1012.1 |
| 20260905023605 | 69 | 335 | 0.0 | 0.0 | 0.00 | 0.25 | 0.25 | 85 | 1012.1 |
| 20260905023106 | 69 | 336 | 0.0 | 0.0 | 0.00 | 0.25 | 0.25 | 85 | 1012.2 |
| 20260905022604 | 69 | 336 | 0.9 | 1.7 | 0.00 | 0.25 | 0.25 | 85 | 1012.1 |
| 20260905022104 | 69 | 336 | 1.7 | 2.6 | 0.00 | 0.25 | 0.25 | 85 | 1012.3 |
| 20260905021605 | 69 | 336 | 0.0 | 0.0 | 0.00 | 0.25 | 0.25 | 84 | 1012.3 |
| 20260905020605 | 70 | 336 | 0.0 | 0.0 | 0.00 | 0.25 | 0.25 | 83 | 1012.2 |
| 20260905020107 | 70 | 336 | 0.0 | 0.0 | 0.00 | 0.25 | 0.25 | 83 | 1012.2 |
| 20260905015605 | 70 | 336 | 0.9 | 1.7 | 0.00 | 0.25 | 0.25 | 82 | 1012.2 |
| 20260905015105 | 71 | 336 | 0.0 | 0.9 | 0.00 | 0.25 | 0.25 | 82 | 1012.2 |
| 20260905014605 | 71 | 336 | 0.0 | 0.9 | 0.00 | 0.25 | 0.25 | 81 | 1012.1 |
| 20260905014105 | 72 | 334 | 0.9 | 1.7 | 0.00 | 0.25 | 0.25 | 80 | 1012.1 |
| 20260905013605 | 72 | 340 | 0.0 | 0.9 | 0.00 | 0.25 | 0.25 | 80 | 1012.1 |
| 20260905013104 | 72 | 340 | 0.0 | 1.7 | 0.00 | 0.25 | 0.25 | 79 | 1012.0 |
| 20260905012604 | 72 | 340 | 0.9 | 1.7 | 0.00 | 0.25 | 0.25 | 79 | 1012.0 |
| 20260905011604 | 73 | 327 | 0.0 | 2.6 | 0.00 | 0.25 | 0.25 | 78 | 1012.1 |
| 20260905010605 | 73 | 342 | 0.0 | 1.7 | 0.00 | 0.25 | 0.25 | 78 | 1012.0 |
| 20260905010105 | 73 | 342 | 0.0 | 1.7 | 0.00 | 0.25 | 0.25 | 77 | 1012.1 |
| 20260905005605 | 73 | 340 | 0.0 | 0.0 | 0.00 | 0.25 | 0.25 | 77 | 1012.1 |
| 20260905004606 | 73 | 338 | 0.9 | 2.6 | 0.00 | 0.25 | 0.25 | 76 | 1012.1 |
| 20260905004104 | 73 | 338 | 0.9 | 2.6 | 0.00 | 0.25 | 0.25 | 76 | 1012.1 |
| 20260905003606 | 74 | 342 | 0.0 | 0.0 | 0.00 | 0.25 | 0.25 | 75 | 1012.0 |
| 20260905002104 | 74 | 342 | 0.0 | 1.7 | 0.00 | 0.25 | 0.25 | 74 | 1012.0 |
| 20260905001604 | 74 | 318 | 0.0 | 0.0 | 0.00 | 0.25 | 0.25 | 74 | 1012.0 |
| 20260905001104 | 75 | 318 | 0.0 | 1.7 | 0.00 | 0.25 | 0.25 | 73 | 1011.9 |
| 20260905000605 | 75 | 338 | 0.0 | 2.6 | 0.00 | 0.25 | 0.25 | 73 | 1011.7 |
| 20260905000104 | 75 | 338 | 0.0 | 4.3 | 0.00 | 0.25 | 0.25 | 74 | 1011.7 |
| 20260904235606 | 75 | 344 | 0.9 | 2.6 | 0.00 | 0.25 | 0.25 | 73 | 1011.6 |
| 20260904234604 | 76 | 291 | 0.0 | 1.7 | 0.00 | 0.25 | 0.25 | 73 | 1011.6 |
| 20260904233104 | 77 | 341 | 0.9 | 2.6 | 0.00 | 0.25 | 0.25 | 72 | 1011.6 |
| 20260904232605 | 77 | 338 | 0.0 | 0.9 | 0.00 | 0.25 | 0.25 | 72 | 1011.6 |
| 20260904232105 | 77 | 338 | 0.9 | 2.6 | 0.00 | 0.25 | 0.25 | 72 | 1011.5 |
| 20260904231605 | 77 | 313 | 0.0 | 2.6 | 0.00 | 0.25 | 0.25 | 72 | 1011.5 |
| 20260904231105 | 77 | 307 | 0.0 | 0.9 | 0.00 | 0.25 | 0.25 | 72 | 1011.5 |
| 20260904230604 | 77 | 307 | 0.9 | 2.6 | 0.00 | 0.25 | 0.25 | 72 | 1011.5 |
| 20260904230105 | 78 | 320 | 0.0 | 1.7 | 0.00 | 0.25 | 0.25 | 72 | 1011.6 |
| 20260904225605 | 78 | 315 | 0.0 | 0.9 | 0.00 | 0.25 | 0.25 | 71 | 1011.6 |
| 20260904225105 | 78 | 315 | 0.0 | 2.6 | 0.00 | 0.25 | 0.25 | 71 | 1011.6 |
| 20260904224604 | 78 | 310 | 0.9 | 1.7 | 0.00 | 0.25 | 0.25 | 71 | 1011.5 |
| 20260904224105 | 78 | 309 | 0.0 | 0.9 | 0.00 | 0.25 | 0.25 | 71 | 1011.5 |
| 20260904223605 | 78 | 309 | 0.0 | 0.9 | 0.00 | 0.25 | 0.25 | 70 | 1011.5 |
| 20260904223105 | 78 | 310 | 0.0 | 0.9 | 0.00 | 0.25 | 0.25 | 70 | 1011.5 |
| 20260904222604 | 79 | 305 | 0.0 | 1.7 | 0.00 | 0.25 | 0.25 | 70 | 1011.6 |
| 20260904222104 | 79 | 303 | 0.0 | 1.7 | 0.00 | 0.25 | 0.25 | 70 | 1011.5 |
| 20260904221605 | 79 | 301 | 0.9 | 2.6 | 0.00 | 0.25 | 0.25 | 69 | 1011.5 |
| 20260904215604 | 80 | 276 | 0.9 | 4.3 | 0.00 | 0.25 | 0.25 | 66 | 1011.4 |
| 20260904214604 | 80 | 293 | 0.9 | 2.6 | 0.00 | 0.25 | 0.25 | 65 | 1011.3 |
| 20260904214105 | 80 | 286 | 1.7 | 2.6 | 0.00 | 0.25 | 0.25 | 63 | 1011.3 |
| 20260904213605 | 81 | 284 | 0.9 | 2.6 | 0.00 | 0.25 | 0.25 | 63 | 1011.3 |
| 20260904213105 | 82 | 284 | 0.0 | 2.6 | 0.00 | 0.25 | 0.25 | 61 | 1011.3 |
| 20260904212604 | 82 | 283 | 1.7 | 2.6 | 0.00 | 0.25 | 0.25 | 60 | 1011.2 |
| 20260904211604 | 82 | 302 | 0.9 | 2.6 | 0.00 | 0.25 | 0.25 | 59 | 1011.2 |
| 20260904211106 | 82 | 288 | 1.7 | 2.6 | 0.00 | 0.25 | 0.25 | 58 | 1011.2 |
| 20260904210605 | 82 | 263 | 1.7 | 2.6 | 0.00 | 0.25 | 0.25 | 58 | 1011.4 |
| 20260904210105 | 83 | 294 | 1.7 | 6.1 | 0.00 | 0.25 | 0.25 | 55 | 1011.4 |
| 20260904205605 | 83 | 307 | 2.6 | 7.0 | 0.00 | 0.25 | 0.25 | 55 | 1011.3 |
| 20260904205105 | 83 | 280 | 4.3 | 7.8 | 0.00 | 0.25 | 0.25 | 55 | 1011.4 |
| 20260904204604 | 84 | 317 | 2.6 | 4.3 | 0.00 | 0.25 | 0.25 | 54 | 1011.3 |
| 20260904203605 | 84 | 296 | 2.6 | 7.8 | 0.00 | 0.25 | 0.25 | 56 | 1011.4 |
| 20260904203105 | 85 | 288 | 2.6 | 8.7 | 0.00 | 0.25 | 0.25 | 52 | 1011.5 |
| 20260904202606 | 85 | 319 | 1.7 | 7.0 | 0.00 | 0.25 | 0.25 | 53 | 1011.6 |
| 20260904202105 | 85 | 276 | 2.6 | 8.7 | 0.00 | 0.25 | 0.25 | 53 | 1011.6 |
| 20260904201605 | 85 | 287 | 2.6 | 10.4 | 0.00 | 0.25 | 0.25 | 52 | 1011.5 |
| 20260904201104 | 85 | 295 | 4.3 | 10.4 | 0.00 | 0.25 | 0.25 | 54 | 1011.5 |
| 20260904200605 | 86 | 326 | 1.7 | 7.8 | 0.00 | 0.25 | 0.25 | 54 | 1011.5 |
| 20260904200105 | 85 | 0 | 2.6 | 10.4 | 0.00 | 0.25 | 0.25 | 52 | 1011.6 |
| 20260904195605 | 85 | 303 | 1.7 | 7.0 | 0.00 | 0.25 | 0.25 | 55 | 1011.5 |
| 20260904195105 | 85 | 301 | 4.3 | 8.7 | 0.00 | 0.25 | 0.25 | 52 | 1011.5 |
| 20260904194604 | 85 | 352 | 0.9 | 6.1 | 0.00 | 0.25 | 0.25 | 52 | 1011.6 |
| 20260904194105 | 85 | 356 | 2.6 | 6.1 | 0.00 | 0.25 | 0.25 | 53 | 1011.5 |
| 20260904193605 | 85 | 310 | 0.9 | 7.0 | 0.00 | 0.25 | 0.25 | 55 | 1011.5 |
| 20260904193104 | 85 | 292 | 2.6 | 8.7 | 0.00 | 0.25 | 0.25 | 54 | 1011.5 |
| 20260904192604 | 84 | 350 | 0.9 | 6.1 | 0.00 | 0.25 | 0.25 | 56 | 1011.5 |
| 20260904192105 | 84 | 19 | 1.7 | 7.8 | 0.00 | 0.25 | 0.25 | 57 | 1011.6 |
| 20260904191604 | 84 | 28 | 2.6 | 5.2 | 0.00 | 0.25 | 0.25 | 57 | 1011.8 |
| 20260904191105 | 84 | 20 | 2.6 | 5.2 | 0.00 | 0.25 | 0.25 | 56 | 1011.7 |
| 20260904190604 | 85 | 294 | 1.7 | 7.0 | 0.00 | 0.25 | 0.25 | 54 | 1011.8 |
| 20260904190104 | 85 | 296 | 1.7 | 6.1 | 0.00 | 0.25 | 0.25 | 56 | 1011.9 |
| 20260904185106 | 85 | 92 | 1.7 | 2.6 | 0.00 | 0.25 | 0.25 | 55 | 1012.0 |
| 20260904184605 | 85 | 10 | 0.9 | 10.4 | 0.00 | 0.25 | 0.25 | 58 | 1012.1 |
| 20260904184105 | 85 | 289 | 2.6 | 6.1 | 0.00 | 0.25 | 0.25 | 56 | 1012.1 |
| 20260904183105 | 84 | 328 | 1.7 | 7.8 | 0.00 | 0.25 | 0.25 | 57 | 1012.2 |
| 20260904182605 | 85 | 299 | 1.7 | 4.3 | 0.00 | 0.25 | 0.25 | 57 | 1012.3 |
| 20260904182105 | 84 | 80 | 2.6 | 7.0 | 0.00 | 0.25 | 0.25 | 59 | 1012.3 |
| 20260904181606 | 84 | 74 | 2.6 | 4.3 | 0.00 | 0.25 | 0.25 | 58 | 1012.2 |
| 20260904181105 | 83 | 31 | 2.6 | 5.2 | 0.00 | 0.25 | 0.25 | 59 | 1012.3 |
| 20260904180605 | 83 | 17 | 0.9 | 5.2 | 0.00 | 0.25 | 0.25 | 60 | 1012.2 |
| 20260904180105 | 84 | 29 | 5.2 | 8.7 | 0.00 | 0.25 | 0.25 | 58 | 1012.2 |
| 20260904175104 | 83 | 65 | 1.7 | 7.8 | 0.00 | 0.25 | 0.25 | 61 | 1012.1 |
| 20260904174604 | 84 | 50 | 5.2 | 10.4 | 0.00 | 0.25 | 0.25 | 59 | 1012.2 |
| 20260904174105 | 83 | 44 | 4.3 | 7.0 | 0.00 | 0.25 | 0.25 | 62 | 1012.2 |
| 20260904173606 | 83 | 70 | 2.6 | 6.1 | 0.00 | 0.25 | 0.25 | 60 | 1012.1 |
| 20260904173106 | 83 | 84 | 4.3 | 8.7 | 0.00 | 0.25 | 0.25 | 62 | 1012.2 |
| 20260904172604 | 83 | 45 | 2.6 | 8.7 | 0.00 | 0.25 | 0.25 | 60 | 1012.1 |
| 20260904172104 | 84 | 8 | 3.5 | 10.4 | 0.00 | 0.25 | 0.25 | 60 | 1012.2 |
| 20260904171605 | 84 | 307 | 2.6 | 5.2 | 0.00 | 0.25 | 0.25 | 61 | 1012.1 |
| 20260904171105 | 83 | 20 | 1.7 | 5.2 | 0.00 | 0.25 | 0.25 | 62 | 1012.1 |
| 20260904170605 | 82 | 11 | 4.3 | 10.4 | 0.00 | 0.25 | 0.25 | 65 | 1012.3 |
| 20260904170105 | 82 | 34 | 2.6 | 7.0 | 0.00 | 0.25 | 0.25 | 65 | 1012.3 |
| 20260904165604 | 82 | 23 | 3.5 | 7.8 | 0.00 | 0.25 | 0.25 | 62 | 1012.4 |
| 20260904165104 | 83 | 65 | 4.3 | 10.4 | 0.00 | 0.25 | 0.25 | 65 | 1012.3 |
| 20260904164606 | 83 | 26 | 1.7 | 6.1 | 0.00 | 0.25 | 0.25 | 64 | 1012.3 |
| 20260904164104 | 82 | 32 | 5.2 | 10.4 | 0.00 | 0.25 | 0.25 | 66 | 1012.3 |
| 20260904163604 | 82 | 19 | 3.5 | 7.8 | 0.00 | 0.25 | 0.25 | 67 | 1012.4 |
| 20260904163105 | 82 | 53 | 2.6 | 11.3 | 0.00 | 0.25 | 0.25 | 67 | 1012.5 |
| 20260904162604 | 82 | 307 | 0.9 | 2.6 | 0.00 | 0.25 | 0.25 | 67 | 1012.5 |
| 20260904162105 | 82 | 20 | 3.5 | 7.8 | 0.00 | 0.25 | 0.25 | 67 | 1012.5 |
| 20260904161604 | 82 | 30 | 4.3 | 7.0 | 0.00 | 0.25 | 0.25 | 69 | 1012.4 |
| 20260904161105 | 81 | 345 | 2.6 | 7.0 | 0.00 | 0.25 | 0.25 | 70 | 1012.4 |
| 20260904160604 | 80 | 25 | 4.3 | 10.4 | 0.00 | 0.25 | 0.25 | 69 | 1012.4 |
| 20260904160104 | 81 | 66 | 4.3 | 11.3 | 0.00 | 0.25 | 0.25 | 69 | 1012.4 |
| 20260904155105 | 79 | 0 | 1.7 | 2.6 | 0.00 | 0.25 | 0.25 | 75 | 1013.0 |
| 20260904154105 | 79 | 17 | 2.6 | 6.1 | 0.00 | 0.25 | 0.25 | 72 | 1012.9 |
| 20260904153606 | 80 | 30 | 4.3 | 8.7 | 0.00 | 0.25 | 0.25 | 72 | 1012.9 |
| 20260904153104 | 81 | 54 | 2.6 | 7.0 | 0.00 | 0.25 | 0.25 | 72 | 1012.9 |
| 20260904152104 | 82 | 45 | 2.6 | 8.7 | 0.00 | 0.25 | 0.25 | 69 | 1013.0 |
| 20260904151605 | 82 | 345 | 1.7 | 7.0 | 0.00 | 0.25 | 0.25 | 69 | 1013.0 |
| 20260904151105 | 82 | 17 | 2.6 | 12.2 | 0.00 | 0.25 | 0.25 | 69 | 1013.1 |
| 20260904150604 | 81 | 20 | 3.5 | 7.8 | 0.00 | 0.25 | 0.25 | 69 | 1013.2 |
| 20260904150105 | 81 | 9 | 3.5 | 7.8 | 0.00 | 0.25 | 0.25 | 69 | 1013.1 |
| 20260904145604 | 81 | 355 | 4.3 | 8.7 | 0.00 | 0.25 | 0.25 | 72 | 1013.1 |
| 20260904145105 | 81 | 7 | 4.3 | 7.0 | 0.00 | 0.25 | 0.25 | 72 | 1012.9 |
| 20260904144105 | 80 | 6 | 0.9 | 7.0 | 0.00 | 0.25 | 0.25 | 74 | 1013.1 |
| 20260904143605 | 80 | 311 | 3.5 | 8.7 | 0.00 | 0.25 | 0.25 | 73 | 1013.0 |
| 20260904143104 | 80 | 10 | 1.7 | 7.8 | 0.00 | 0.25 | 0.25 | 76 | 1013.0 |
| 20260904141605 | 79 | 358 | 2.6 | 7.0 | 0.00 | 0.25 | 0.25 | 79 | 1013.0 |
| 20260904141104 | 79 | 300 | 1.7 | 5.2 | 0.00 | 0.25 | 0.25 | 82 | 1013.0 |
| 20260904140604 | 78 | 277 | 1.7 | 4.3 | 0.00 | 0.25 | 0.25 | 82 | 1013.0 |
| 20260904135605 | 77 | 355 | 1.7 | 5.2 | 0.00 | 0.25 | 0.25 | 86 | 1012.9 |
| 20260904135105 | 77 | 321 | 2.6 | 7.0 | 0.00 | 0.25 | 0.25 | 87 | 1013.0 |
| 20260904134604 | 76 | 342 | 1.7 | 6.1 | 0.00 | 0.25 | 0.25 | 88 | 1012.8 |
| 20260904134104 | 76 | 308 | 2.6 | 8.7 | 0.00 | 0.25 | 0.25 | 90 | 1012.7 |
| 20260904133605 | 75 | 320 | 1.7 | 7.8 | 0.00 | 0.25 | 0.25 | 91 | 1012.8 |
| 20260904133104 | 75 | 348 | 1.7 | 5.2 | 0.00 | 0.25 | 0.25 | 93 | 1012.8 |
| 20260904132604 | 74 | 318 | 1.7 | 4.3 | 0.00 | 0.25 | 0.25 | 94 | 1012.9 |
| 20260904132104 | 74 | 259 | 0.9 | 5.2 | 0.00 | 0.25 | 0.25 | 95 | 1012.9 |
| 20260904131604 | 73 | 307 | 2.6 | 4.3 | 0.00 | 0.25 | 0.25 | 95 | 1012.8 |
| 20260904131105 | 73 | 312 | 0.9 | 4.3 | 0.00 | 0.25 | 0.25 | 96 | 1012.8 |
| 20260904130606 | 73 | 280 | 1.7 | 5.2 | 0.00 | 0.25 | 0.25 | 96 | 1013.0 |
| 20260904130104 | 73 | 252 | 0.9 | 2.6 | 0.00 | 0.25 | 0.25 | 96 | 1013.0 |
| 20260904125604 | 72 | 356 | 1.7 | 4.3 | 0.00 | 0.25 | 0.25 | 96 | 1013.1 |
| 20260904125104 | 72 | 309 | 1.7 | 5.2 | 0.00 | 0.25 | 0.25 | 96 | 1013.2 |
| 20260904124604 | 72 | 323 | 0.9 | 5.2 | 0.00 | 0.25 | 0.25 | 97 | 1013.2 |
| 20260904124104 | 71 | 317 | 1.7 | 5.2 | 0.00 | 0.25 | 0.25 | 97 | 1013.3 |
| 20260904123605 | 71 | 306 | 0.9 | 4.3 | 0.00 | 0.25 | 0.25 | 97 | 1013.1 |
| 20260904123105 | 71 | 259 | 0.9 | 2.6 | 0.00 | 0.25 | 0.25 | 97 | 1013.1 |
| 20260904122105 | 71 | 261 | 0.9 | 2.6 | 0.00 | 0.25 | 0.25 | 97 | 1013.1 |
| 20260904121605 | 71 | 261 | 0.0 | 0.0 | 0.00 | 0.25 | 0.25 | 97 | 1012.9 |
| 20260904121105 | 70 | 261 | 0.0 | 0.0 | 0.00 | 0.25 | 0.25 | 97 | 1012.8 |